Location: Asarope
(8.2500°N, 4.4833°E)
Time: 19:04:00
(UTC+00:00)

ALOS - Visible Passes

Search period start: 26 September 2020 00:00
Search period end: 06 October 2020 00:00
Orbit: 683 x 685 km, 97.9° (Epoch: 26 September)

Date Brightness Start Highest point End Pass type
(mag) Time Alt. Az. Time Alt. Az. Time Alt. Az.
26 Sep 4.5 03:22:12 10° NE 03:25:53 24° E 03:29:36 10° SSE visible
26 Sep 3.7 05:00:01 10° NW 05:03:01 17° WNW 05:06:01 10° WSW visible
27 Sep 2.3 03:58:20 10° NNE 04:02:58 76° ESE 04:07:37 10° S visible
28 Sep 5.3 03:01:12 10° E 03:02:48 12° E 03:04:24 10° ESE visible
28 Sep 2.9 04:35:50 10° NNW 04:40:00 33° WNW 04:44:11 10° SW visible
29 Sep 3.7 03:35:38 10° NE 03:39:54 36° E 03:44:10 10° SSE visible
30 Sep 2.1 04:12:21 10° N 04:16:58 69° WNW 04:21:36 10° SSW visible
01 Oct 4.8 03:13:38 10° ENE 03:16:49 18° E 03:20:01 10° SE visible
01 Oct 3.4 04:50:25 10° NNW 04:53:58 22° WNW 04:57:32 10° SW visible
02 Oct 2.8 03:49:21 10° NNE 03:53:54 57° ESE 03:58:29 10° S visible
03 Oct 2.5 04:26:33 10° N 04:30:57 43° WNW 04:35:22 10° SSW visible
04 Oct 4.2 03:26:51 10° NE 03:30:50 28° E 03:34:49 10° SSE visible
04 Oct 3.9 05:05:28 10° NW 05:07:56 14° WNW 05:10:23 10° WSW visible
05 Oct 2.2 04:03:15 10° NNE 04:07:54 90° WNW 04:12:35 10° SSW visible
